Miscellaneous Local Product
Issued by NWS Hastings, NE

Home | Current Version | Previous Version | Text Only | Print | Product List | Glossary On
Versions: 1 2 3 4 5 6 7 8 9 10 11 12 13 14 15 16 17 18 19 20 21 22 23 24 25 26 27 28 29 30 31 32 33 34 35 36 37 38 39 40 41 42 43 44 45 46 47 48 49 50
840
AXUS43 KGID 261602
MISGRI

GID CWA HOURLY WEATHER ROUNDUP
NATIONAL WEATHER SERVICE HASTINGS NE
1100 AM CDT MON SEP 26 2016

NOTE: "FAIR" INDICATES FEW OR NO CLOUDS BELOW 12,000 FEET WITH NO
SIGNIFICANT WEATHER AND/OR OBSTRUCTIONS TO VISIBILITY.

...SOUTH CENTRAL NEBRASKA...

CITY           SKY/WX    TMP DP  RH WIND       PRES   REMARKS
GRAND ISLAND   SUNNY     65  38  36 W10       30.30S
HASTINGS       SUNNY     65  34  31 W14       30.31S
KEARNEY        SUNNY     64  32  29 W10G16    30.30S
ORD            SUNNY     64  34  32 W12       30.27F
YORK           SUNNY     66  37  34 W14       30.28F
AURORA         SUNNY     65  38  36 W8        30.29F
LEXINGTON      SUNNY     65  31  27 W12       30.32S
HOLDREGE       SUNNY     64  31  28 SW10G17   30.32S
HEBRON         SUNNY     66  38  35 W7        30.30S

...NEBRASKA PANHANDLE...

CITY           SKY/WX    TMP DP  RH WIND       PRES   REMARKS
CHADRON        SUNNY     64  39  39 NW10      30.32F
ALLIANCE       SUNNY     64  40  41 NW14G20   30.34S
SCOTTSBLUFF    SUNNY     57  41  55 NW14G20   30.37S
SIDNEY         SUNNY     63  41  44 NW12      30.38R

...WESTERN AND NORTH CENTRAL NEBRASKA...

CITY           SKY/WX    TMP DP  RH WIND       PRES   REMARKS
VALENTINE      SUNNY     66  33  29 W9        30.26S
AINSWORTH      SUNNY     64  37  36 W15       30.26F
ONEILL         SUNNY     67  33  28 W13G18    30.24F
BROKEN BOW     SUNNY     64  33  31 W13       30.29F
IMPERIAL       SUNNY     64  35  34 SW10      30.34F
NORTH PLATTE   SUNNY     62  39  42 NW8       30.32F
MCCOOK         SUNNY     60  41  49 SW9       30.34F

...EASTERN NEBRASKA...

CITY           SKY/WX    TMP DP  RH WIND       PRES   REMARKS
NORFOLK        SUNNY     67  36  31 W16G26    30.23F
SO SIOUX CITY  SUNNY     65  43  44 NW12      30.20F
TEKAMAH        SUNNY     67  40  37 W10       30.22F
COLUMBUS       SUNNY     64  39  39 W8        30.26F
ALBION         SUNNY     66  35  31 W14G21    30.26F
OMAHA EPPLEY   SUNNY     66  40  38 W14       30.23F
OFFUTT AFB     SUNNY     65  43  45 W12       30.23S
MILLARD        SUNNY     65  43  45 W12G17    30.23F
LINCOLN        SUNNY     69  41  36 W10       30.27F
NEBRASKA CITY  SUNNY     65  28  24 NW13G18   30.26S
BEATRICE       SUNNY     67  42  39 W8        30.28S
FALLS CITY     SUNNY     65  45  48 W7        30.26S

...NORTHERN KANSAS...

CITY           SKY/WX    TMP DP  RH WIND       PRES   REMARKS
GOODLAND       SUNNY     65  30  27 SW13      30.38S
HILL CITY      SUNNY     64  39  39 W7        30.37R
NORTON         SUNNY     64  25  22 SW10      30.34F
PHILLIPSBURG   SUNNY     66  36  32 SW8       30.35S
SMITH CENTER   SUNNY     64  36  34 W8        30.35R
HAYS           SUNNY     66  32  28 W7        30.36S
RUSSELL        SUNNY     65  43  44 W6        30.35R
CONCORDIA      SUNNY     64  41  42 NW9       30.32S
SALINA         SUNNY     64  46  52 NW5       30.34R
TOPEKA         SUNNY     64  48  56 W7        30.29S



USA.gov is the U.S. government's official web portal to all federal, state and local government web resources and services.